Theta_e
316 316 315 316 316 317 317 316 316 315 314 314 317 315 315 314 313 315 317 317 317 317 317 316 316 317 317 317 317 318 314 314 313 311 313 310 310 310 310 310 310 311 310 310 309
314 314 314 314 315 315 315 315 315 315 314 314 314 316 315 315 315 315 317 316 316 316 316 318 318 316 318 317 315 311 311 314 311 309 312 311 311 311 309 308 308 310 311 310 309
311 311 311 312 313 313 313 313 314 314 313 313 314 315 315 315 316 315 317 315 315 316 317 319 319 315 315 316 314 311 311 312 313 313 313 312 311 310 308 307 311 314 313 310 309
310 310 310 310 311 311 312 312 312 312 313 312 313 315 316 317 316 315 316 315 314 314 316 319 319 317 313 313 314 314 312 313 314 314 313 312 311 308 308 313 313 313 312 311 309
312 312 312 312 311 310 310 311 311 311 311 312 312 313 316 316 317 315 315 314 314 314 315 318 318 316 314 312 312 312 312 314 314 314 313 312 311 309 310 313 312 311 311 310 309
313 313 313 313 313 313 312 310 310 310 310 311 311 313 315 315 317 317 315 314 314 313 314 316 317 316 314 314 312 312 312 312 312 312 312 311 310 310 311 313 312 311 310 309 308
312 313 313 313 313 313 313 312 311 310 310 310 311 313 314 315 316 317 316 314 313 313 314 314 316 315 313 309 311 311 311 309 309 310 310 310 309 307 312 311 311 310 309 308 307
311 311 312 312 312 312 312 311 311 310 310 310 311 314 314 315 317 317 316 312 312 312 313 313 315 315 312 311 310 310 308 312 311 309 311 310 313 309 311 309 310 309 308 307 307
312 312 311 311 311 311 310 310 310 310 310 311 312 314 315 316 316 317 317 311 311 312 313 313 315 313 311 310 311 309 314 311 310 308 309 308 311 309 311 308 307 308 307 306 305
312 311 311 311 310 309 309 308 309 310 311 313 314 316 314 315 317 317 316 311 310 311 312 313 312 308 306 310 312 311 312 310 309 309 307 308 308 309 310 309 307 306 306 304 304
311 311 311 309 307 306 307 307 310 310 313 314 313 315 313 314 314 315 315 313 311 311 310 311 310 311 310 309 311 311 311 311 308 306 307 307 308 309 309 307 304 304 303 304 306
306 308 308 307 306 305 306 307 308 310 310 311 312 313 314 314 313 313 314 313 311 309 308 309 311 309 309 307 309 308 309 308 306 305 305 305 307 308 307 308 309 305 303 304 303
306 305 305 305 305 304 305 307 308 311 312 312 312 311 311 311 311 311 312 312 308 306 307 309 310 307 309 308 308 307 307 308 309 304 303 302 305 303 304 305 306 306 306 306 306
308 307 306 305 304 305 307 309 311 312 302 305 307 310 311 312 310 310 311 310 307 307 305 308 308 309 308 309 307 310 305 307 307 306 308 303 311 306 306 306 304 306 306 308 307
311 311 309 307 306 307 309 312 311 311 303 306 307 309 313 310 308 308 308 308 306 306 308 310 306 307 308 309 306 309 304 304 304 304 302 303 304 307 300 304 307 305 308 309 309
312 313 312 309 306 307 309 311 312 305 306 306 310 309 310 309 308 307 307 307 307 308 307 307 306 305 308 303 305 302 304 301 298 300 305 307 307 306 304 305 305 304 308 309 308
313 313 312 310 308 308 309 310 306 303 305 306 309 308 309 309 308 306 306 305 307 310 309 309 306 304 305 307 305 304 307 310 309 306 311 299 302 308 305 302 304 306 307 307 306
314 314 313 311 309 309 310 308 307 304 304 308 309 309 310 307 308 306 306 307 304 308 307 311 312 304 303 308 309 304 307 311 309 307 309 297 305 309 302 305 304 305 305 306 307
316 315 313 311 309 310 307 309 305 306 305 306 309 310 309 309 308 306 305 306 306 307 312 310 311 303 303 303 305 304 306 305 304 289 303 308 306 305 303 302 299 299 300 304 307
318 316 315 312 309 310 304 307 305 306 305 307 307 307 306 307 306 307 306 305 308 306 310 311 313 304 300 302 299 303 301 306 305 309 305 308 309 310 306 306 303 301 299 306 307
318 314 313 312 310 309 306 305 305 309 308 307 306 305 305 306 307 305 307 306 306 307 307 308 312 307 302 303 303 301 303 302 304 305 307 306 310 305 306 305 305 304 305 308 309
316 313 311 311 311 311 310 306 308 307 308 307 306 305 304 306 307 305 307 308 308 305 308 307 310 313 304 300 299 301 304 305 308 307 302 304 310 305 307 304 303 305 307 308 307
315 314 311 310 312 312 307 307 308 308 306 308 309 307 306 305 308 306 306 306 308 306 307 306 309 311 312 303 300 302 301 302 302 302 309 307 310 306 303 303 304 303 304 306 307
315 310 307 308 311 311 311 310 310 309 308 308 307 307 308 308 307 309 307 306 307 307 309 309 309 312 311 309 304 303 300 302 304 309 309 308 309 309 309 307 304 305 306 305 305
316 310 306 307 309 311 310 309 311 310 308 308 309 309 308 309 309 309 308 307 304 304 306 307 312 311 311 310 305 304 305 304 304 306 308 309 308 308 309 308 308 308 308 307 307
316 308 308 308 308 309 311 311 310 310 308 309 309 309 308 309 309 309 308 308 310 303 304 303 310 309 312 310 306 307 306 308 306 306 304 305 306 308 308 308 307 308 308 307 306
314 315 309 307 308 309 309 310 311 310 311 309 310 310 309 308 309 309 309 309 309 309 308 304 307 309 312 310 305 307 309 310 309 308 308 308 307 307 306 306 306 306 307 306 306
Wind_Speed
7 8 9 10 10 11 12 13 14 14 13 12 7 1 3 4 3 2 4 5 7 7 8 5 4 4 4 2 3 3 4 1 3 5 3 8 3 6 5 5 12 14 13 8 16
7 9 9 10 11 11 12 12 12 13 13 10 10 4 3 2 2 2 4 3 5 6 8 7 6 5 4 2 1 3 3 5 4 5 2 5 7 8 5 8 11 20 22 17 16
9 9 10 10 11 12 12 13 13 13 12 11 8 6 4 5 6 6 5 2 3 5 7 7 7 3 4 3 2 2 4 3 3 7 4 4 5 7 7 6 20 24 27 23 23
11 11 11 11 12 12 13 14 13 14 14 13 9 6 4 4 4 6 7 4 1 3 5 5 5 2 3 2 1 1 2 3 4 4 3 4 4 6 18 19 15 14 18 24 27
13 14 14 13 13 13 12 14 15 14 14 14 12 9 6 6 7 8 9 7 4 4 4 4 5 2 2 2 1 2 2 4 6 8 8 9 12 8 22 21 25 22 17 23 29
15 16 16 16 16 15 14 13 15 15 15 15 13 11 7 6 6 8 10 10 9 6 5 3 2 2 5 1 2 2 5 10 7 10 9 5 5 2 8 6 13 20 23 26 31
18 18 19 19 18 18 17 15 16 17 16 16 13 10 12 13 9 9 12 11 9 7 6 3 1 1 2 3 0 1 4 5 4 2 3 4 8 10 22 18 15 17 21 26 31
19 20 21 21 21 20 19 17 17 17 18 17 12 9 8 10 10 13 13 11 10 8 6 4 1 1 2 3 3 1 3 3 2 3 2 4 11 6 8 14 18 20 23 28 32
21 21 22 22 23 24 22 20 19 19 19 14 10 7 7 8 11 14 14 12 10 7 5 4 2 2 3 4 4 5 3 3 7 7 1 6 10 6 11 16 24 25 28 32 34
23 23 23 22 22 24 25 23 20 18 15 11 10 5 11 7 8 11 14 13 9 6 3 3 2 3 3 3 5 6 4 5 6 4 4 5 17 19 24 28 35 32 33 35 38
26 25 24 23 22 22 24 20 8 6 6 8 3 7 7 9 9 11 12 13 11 5 5 2 2 9 12 8 3 3 4 7 5 4 4 10 15 20 30 24 26 32 32 35 41
27 26 25 23 21 19 19 13 11 8 11 14 21 26 28 26 11 15 14 10 8 7 7 3 11 9 5 4 5 4 4 7 7 2 6 9 17 18 20 24 31 30 30 35 34
27 27 26 22 20 18 15 13 11 8 4 10 18 19 19 19 11 11 16 10 5 7 8 8 3 7 7 4 6 5 6 5 8 5 3 7 10 8 6 11 26 28 31 28 31
24 26 26 20 14 14 9 6 4 3 3 7 6 6 8 7 5 11 17 8 3 10 10 7 3 7 4 6 8 4 6 2 3 3 4 4 13 3 6 11 8 20 22 26 27
17 20 21 18 8 8 5 4 3 1 5 5 4 4 8 7 1 3 15 7 6 6 7 8 8 5 5 8 9 6 4 4 1 3 3 4 5 4 3 8 16 8 20 23 23
14 14 19 15 12 13 8 7 7 4 8 5 5 4 3 3 2 3 4 3 1 4 2 6 0 6 7 3 2 6 4 4 3 2 2 8 10 5 6 9 8 7 17 14 14
16 14 16 17 9 11 12 11 2 6 3 5 5 4 2 6 4 6 6 5 7 4 6 0 5 3 4 5 3 3 5 4 5 2 8 5 3 15 7 10 12 10 16 13 13
20 20 17 17 11 11 19 3 9 8 9 2 4 2 7 8 6 7 5 5 8 1 3 6 11 9 6 8 8 7 9 6 9 4 16 2 8 9 16 19 15 21 22 18 17
25 25 25 19 12 16 16 5 12 10 10 10 3 4 5 5 6 6 9 7 10 17 10 8 9 2 3 3 4 5 6 2 4 2 3 6 13 7 8 10 7 19 18 21 18
34 32 36 21 17 21 3 19 9 10 8 5 16 13 12 9 9 10 10 6 7 16 6 6 5 3 3 3 1 5 5 4 2 3 6 12 22 18 10 15 11 11 22 26 18
38 17 13 26 27 17 8 11 6 13 14 9 14 8 10 10 10 8 9 5 8 6 10 6 6 3 4 10 13 4 4 3 2 4 6 7 17 5 7 10 11 14 24 21 14
27 5 18 40 16 11 12 8 5 4 17 9 5 10 12 10 9 8 11 10 21 11 11 8 5 9 13 1 0 3 12 13 6 8 5 2 25 1 2 9 9 10 15 18 17
15 17 23 42 8 10 3 4 4 3 6 8 10 7 5 9 6 9 9 5 19 11 11 9 4 2 8 2 3 7 7 8 2 1 23 7 23 5 10 9 16 13 18 20 21
13 5 8 27 19 17 16 10 8 9 10 7 4 7 4 5 7 10 7 7 20 10 5 19 7 11 21 17 6 6 8 18 21 17 16 26 35 37 34 20 12 16 26 31 31
12 4 14 8 19 16 17 9 20 11 9 15 6 21 14 14 16 22 10 1 4 7 3 8 13 16 23 26 6 5 7 21 23 30 19 30 20 38 34 20 25 32 38 35 29
16 7 11 6 24 22 20 17 24 20 11 12 21 19 20 24 25 24 19 4 6 3 5 1 13 10 27 26 9 12 18 29 24 33 15 20 32 45 29 32 30 41 39 39 38
31 30 10 10 12 15 21 29 26 25 16 32 23 17 19 28 39 45 33 17 13 9 12 8 7 9 24 22 4 2 36 30 33 34 21 27 39 31 28 26 28 41 42 42 41
Wind_Direction
350 357 1 4 6 9 13 14 19 22 23 15 14 358 50 64 83 142 103 85 60 47 39 32 14 129 142 100 97 122 71 216 235 166 246 170 165 191 218 206 197 208 224 224 190
331 335 342 348 351 353 355 2 3 8 12 15 4 340 262 268 285 199 163 98 55 29 27 28 41 137 124 99 50 90 112 216 197 203 259 199 200 197 190 216 232 235 236 231 206
312 317 323 328 334 339 340 343 347 349 355 359 359 342 291 280 275 223 192 144 60 25 18 19 25 123 109 117 26 138 172 215 236 239 250 202 231 204 196 235 233 237 245 226 210
308 311 316 320 323 328 330 330 333 335 338 343 341 332 287 264 220 203 210 211 322 3 8 10 12 85 92 105 79 147 207 220 282 246 223 221 214 220 218 243 263 262 258 231 214
297 304 309 314 317 319 321 320 322 325 327 330 330 327 289 260 254 231 223 237 265 309 329 359 30 81 114 142 115 165 231 243 269 260 257 263 248 246 258 264 260 257 248 231 218
290 295 300 304 308 312 315 315 311 314 318 320 320 314 277 245 248 237 237 246 256 273 293 331 18 35 122 113 144 186 276 276 286 266 254 241 279 278 255 269 260 252 247 229 219
288 293 296 299 303 305 307 309 306 306 309 312 309 300 275 270 252 238 237 242 247 255 280 286 315 342 155 138 223 241 318 314 246 242 248 211 280 232 261 273 265 252 241 228 219
282 286 290 295 299 301 302 303 300 300 301 304 298 286 264 257 247 243 237 237 241 250 266 258 249 141 133 132 39 86 63 25 231 180 245 153 272 266 261 263 262 250 235 225 221
280 283 288 293 299 300 302 303 300 298 295 290 281 255 256 252 243 236 232 237 236 243 249 238 247 133 119 89 8 359 254 241 301 210 228 177 273 234 267 266 263 251 239 228 223
280 282 285 290 296 301 304 307 306 298 281 277 249 251 241 231 228 233 231 232 236 231 214 209 148 78 45 100 239 229 239 247 241 218 211 227 258 277 270 273 266 259 249 235 230
274 277 281 287 292 298 303 318 306 290 254 230 216 253 263 242 261 246 230 222 223 203 177 138 117 214 211 201 174 169 199 234 250 239 226 248 254 262 276 258 260 257 247 246 243
267 271 275 281 286 293 300 305 291 276 301 261 254 255 258 264 257 247 221 192 179 195 130 59 229 204 134 152 154 167 207 259 283 238 194 272 263 265 259 263 263 259 251 256 252
271 270 270 275 281 285 288 288 282 280 253 278 249 250 252 246 236 230 200 201 167 175 189 171 232 115 133 147 164 204 192 228 238 335 253 302 267 236 284 252 267 255 258 259 252
274 272 271 272 279 270 271 271 251 305 44 264 231 226 214 196 258 213 192 190 199 209 160 228 217 152 162 209 151 226 209 209 285 13 259 21 294 235 243 280 258 258 245 249 248
289 292 286 265 224 232 232 199 168 358 294 274 206 197 175 177 130 219 191 201 195 186 138 238 164 165 187 216 162 224 125 143 136 216 7 237 264 217 7 273 266 258 252 247 253
285 290 298 287 233 223 199 168 138 51 246 284 175 186 142 200 201 146 178 199 120 141 252 255 303 171 198 79 147 135 96 69 64 103 263 225 201 169 184 212 257 258 256 243 247
276 280 280 283 229 214 186 159 62 196 298 233 215 173 178 191 208 180 172 187 179 135 226 243 212 175 170 101 28 103 71 325 315 343 247 136 229 258 234 229 220 227 236 247 267
260 264 268 273 233 186 169 68 224 182 192 112 137 122 194 161 222 184 171 225 236 126 123 184 266 179 185 197 179 173 168 170 241 238 288 72 244 273 220 238 221 242 258 254 242
243 250 252 245 237 186 178 204 218 176 186 167 106 172 233 235 195 156 209 207 207 177 195 182 267 117 203 150 148 182 191 172 96 138 314 242 263 283 227 250 236 239 236 243 243
229 232 239 238 223 183 197 238 214 187 143 143 200 183 204 194 174 185 180 195 217 194 187 221 274 188 137 124 62 174 161 85 2 248 251 268 273 271 219 233 228 241 228 243 237
225 213 226 199 177 177 215 229 245 212 182 169 216 226 220 187 197 204 219 225 199 186 189 158 180 217 130 205 174 143 199 198 170 164 198 268 269 205 207 201 208 231 233 222 234
210 247 183 172 169 201 226 197 222 242 212 234 190 219 207 186 206 225 218 223 185 151 164 210 171 225 220 314 122 198 197 180 201 227 242 203 268 51 314 190 204 223 224 210 253
208 216 183 176 202 207 248 282 249 187 196 203 228 199 178 196 226 192 221 188 175 163 167 175 221 265 261 342 356 215 196 214 247 231 233 193 257 174 236 227 215 229 240 249 251
208 157 188 210 229 211 209 227 235 217 233 233 243 177 164 229 245 253 221 200 201 200 291 171 170 209 237 248 131 193 200 214 216 235 234 231 255 274 260 267 257 263 274 265 266
232 200 184 183 229 227 212 201 227 222 209 203 245 232 215 234 240 242 257 269 78 10 333 166 242 240 251 259 221 205 230 226 222 229 223 252 246 257 269 268 270 272 271 272 267
245 168 187 236 215 225 218 217 231 233 183 218 219 237 232 240 241 263 240 199 217 237 199 191 248 267 253 258 249 244 254 256 253 252 238 256 262 256 279 284 285 277 276 276 273
247 247 210 204 204 203 219 229 231 237 242 237 230 223 232 233 230 240 255 220 211 216 236 200 233 242 254 259 221 259 244 260 263 268 263 256 253 272 265 266 260 266 271 270 270